[[{"header":{"parameterUnit":"m.s-1","parameterCategory":1,"la1":30.2991,"la2":30.254,"lo1":-89.0895,"lo2":-89.0444,"dy":0.0017,"dx":0.0017,"nx":28,"ny":28,"refTime":"2023-04-17T21:00:00:Z","depth":0,"parameterNumber":2,"parameterNumberName":"U-component_of_WINDS"},"data":[0,0,0,0,0,0,0,0,0,0,0,0,0,0,0,0,0,0,0,0,0,0,0,0,0,0,0,0,0,0,0,0,0,0,0,0,0,0,0,0,0,0,0,0,0,0,0,0,0,0,0,0,0,0,0,0,0,0,-4.2819,-4.2819,0,-4.2837,-4.2837,-4.2837,-4.2812,-4.2811,-4.281,-4.2809,-4.2826,-4.2828,-4.2829,0,0,0,0,0,0,0,0,0,0,0,0,0,-4.2764,-4.2765,-4.2819,-4.2819,-4.282,-4.2837,-4.2837,-4.2837,-4.2812,-4.2811,-4.281,-4.2809,-4.2826,-4.2827,-4.2829,0,0,0,0,0,0,0,0,0,0,0,0,0,-4.2786,-4.2766,-4.2819,-4.2809,-4.2808,-4.2837,-4.2837,-4.2837,-4.2812,-4.2811,-4.2809,-4.2808,-4.2825,-4.2827,-4.2829,-4.2868,0,0,-4.2835,-4.2836,0,0,0,0,0,0,0,0,-4.2784,-4.2788,-4.281,-4.281,-4.2809,-4.2821,-4.2824,-4.2847,-4.2812,-4.2811,-4.2809,-4.2807,-4.2825,-4.2827,-4.2834,-4.2869,-4.287,-4.2835,-4.2836,-4.2837,-4.2838,0,0,0,0,0,0,0,-4.2783,-4.2787,-4.2826,-4.2811,-4.281,-4.2804,-4.2805,-4.2828,-4.2825,-4.2811,-4.2809,-4.2811,-4.2825,-4.2832,-4.2834,-4.287,-4.2835,-4.2837,-4.2838,-4.2839,-4.2939,-4.294,0,0,0,0,0,0,-4.2783,-4.2786,-4.2825,-4.2826,-4.2793,-4.2806,-4.2808,-4.2818,-4.2825,-4.2825,-4.2812,-4.281,-4.2829,-4.2832,-4.2834,-4.288,-4.2837,-4.2839,-4.284,-4.2937,-4.2939,-4.2941,0,0,0,0,0,0,-4.2782,-4.2786,-4.2825,-4.2806,-4.281,-4.2808,-4.282,-4.2819,-4.2826,-4.2826,-4.2826,-4.282,-4.2828,-4.2832,-4.286,-4.288,-4.284,-4.2842,-4.2935,-4.2938,-4.294,-4.2972,0,0,0,0,0,0,-4.278,-4.2786,-4.28,-4.2806,-4.2811,-4.285,-4.2822,-4.2821,-4.283,-4.2827,-4.2833,-4.2833,-4.2827,-4.2857,-4.2862,-4.2882,-4.2843,-4.2934,-4.2936,-4.2939,-4.2969,-4.2975,-4.298,0,0,0,0,0,-4.2778,-4.2808,-4.2801,-4.2806,-4.2829,-4.2851,-4.2854,-4.2847,-4.2831,-4.2846,-4.2846,-4.2833,-4.2878,-4.286,-4.2865,-4.2887,-4.2932,-4.2936,-4.2939,-4.2966,-4.2974,-4.298,0,0,0,0,0,0,-4.2804,-4.2809,-4.2801,-4.2834,-4.2843,-4.2847,-4.2865,-4.2855,-4.2868,-4.2864,-4.2855,-4.2857,-4.2887,-4.289,-4.2871,-4.2925,-4.2902,-4.2907,-4.2922,-4.2928,-4.2934,-4.2932,-4.2845,0,0,0,0,0,-4.2814,-4.2832,-4.2835,-4.2864,-4.2869,-4.2866,-4.2875,-4.287,-4.2878,-4.2881,-4.2884,-4.2892,-4.2908,-4.2919,-4.2934,-4.297,-4.2971,-4.2987,-4.2993,-4.2997,-4.3001,-4.302,-4.3028,-4.2952,-4.2952,-4.2952,0,0,-4.2834,-4.2839,-4.285,-4.2869,-4.2875,-4.2893,-4.2869,-4.2889,-4.2903,-4.2884,-4.2911,-4.2914,-4.2923,-4.2955,-4.297,-4.2958,-4.3022,-4.3002,-4.3005,-4.3006,-4.3025,-4.3032,-4.3038,-4.2954,-4.2953,-4.2953,0,0,-4.288,-4.2885,-4.291,-4.2917,-4.2926,-4.2925,-4.2931,-4.2938,-4.2939,-4.2966,-4.2952,-4.2969,-4.2997,-4.3004,-4.3011,-4.3062,-4.305,-4.3067,-4.3095,-4.3115,-4.3121,-4.3126,-4.3143,-4.315,-4.3071,-4.3071,-4.3071,0,-4.2903,-4.293,-4.2924,-4.2945,-4.2954,-4.294,-4.2965,-4.2972,-4.2985,-4.2992,-4.298,-4.3015,-4.302,-4.3054,-4.3067,-4.3074,-4.308,-4.3065,-4.312,-4.3125,-4.313,-4.3147,-4.3154,-4.3073,-4.3073,-4.3073,-4.3073,0,-4.2958,-4.2978,-4.2996,-4.3011,-4.3022,-4.3045,-4.3043,-4.3055,-4.305,-4.305,-4.3078,-4.3084,-4.31,-4.3108,-4.3102,-4.3142,-4.3135,-4.3122,-4.3098,-4.3139,-4.3155,-4.3161,-4.3076,-4.3075,-4.3075,-4.3074,0,0,-4.3018,-4.303,-4.3037,-4.3044,-4.3054,-4.3069,-4.3093,-4.3109,-4.3119,-4.3131,-4.3149,-4.3175,-4.3163,-4.3171,-4.3167,-4.3184,-4.3224,-4.3169,-4.3169,-4.3178,-4.3267,-4.3276,-4.3283,-4.3217,-4.3218,-4.3219,-4.3266,0,-4.3062,-4.3102,-4.3099,-4.3136,-4.3154,-4.3142,-4.3162,-4.3171,-4.3173,-4.3188,-4.319,-4.3208,-4.3192,-4.3197,-4.3213,-4.3215,-4.3241,-4.3212,-4.3234,-4.3235,-4.323,-4.3292,-4.3301,-4.3345,-4.3272,-4.3273,-4.3274,0,-4.3119,-4.3133,-4.3173,-4.3182,-4.3189,-4.3207,-4.3222,-4.3238,-4.3248,-4.3248,-4.3259,-4.3252,-4.3276,-4.3254,-4.3287,-4.3267,-4.3276,-4.3279,-4.328,-4.328,-4.3255,-4.3292,-4.3359,-4.3365,-4.3284,-4.3283,-4.3282,0,-4.3158,-4.3186,-4.3214,-4.322,-4.3231,-4.3245,-4.325,-4.3259,-4.327,-4.3283,-4.329,-4.3307,-4.3315,-4.3328,-4.3326,-4.331,-4.3359,-4.3337,-4.3359,-4.3359,-4.3368,-4.3367,-4.3436,-4.3377,-4.3377,-4.3377,-4.3377,0,-4.3207,-4.3231,-4.3231,-4.3248,-4.3276,-4.3272,-4.3299,-4.3303,-4.3312,-4.333,-4.3321,-4.3337,-4.3334,-4.3351,-4.3349,-4.3377,-4.3381,-4.3381,-4.338,-4.3381,-4.3381,-4.3386,-4.3382,-4.3379,-4.3378,-4.3378,-4.3378,0,-4.3253,-4.3254,-4.3283,-4.3293,-4.3296,-4.3315,-4.3323,-4.3339,-4.3341,-4.3364,-4.3369,-4.3371,-4.3391,-4.3391,-4.3413,-4.3412,-4.3445,-4.3441,-4.3441,-4.344,-4.3462,-4.3459,-4.3534,-4.3544,-4.348,-4.3481,-4.3481,0,-4.3284,-4.3302,-4.3314,-4.3325,-4.3332,-4.335,-4.3361,-4.3359,-4.3371,-4.3385,-4.34,-4.3419,-4.3433,-4.3466,-4.3469,-4.3487,-4.3482,-4.3508,-4.3485,-4.3485,-4.3481,-4.348,-4.3481,-4.3511,-4.3512,-4.3513,-4.3513,0,-4.3337,-4.3337,-4.3353,-4.3371,-4.3384,-4.3397,-4.3409,-4.3419,-4.3418,-4.3432,-4.3453,-4.3464,-4.3488,-4.3506,-4.3523,-4.3529,-4.3521,-4.3521,-4.3526,-4.3527,-4.3525,-4.3525,-4.3452,-4.3518,-4.3518,-4.3517,-4.3517,-4.3517,-4.3376,-4.3392,-4.3403,-4.3422,-4.3431,-4.3443,-4.3459,-4.3463,-4.348,-4.3499,-4.3497,-4.352,-4.3531,-4.3553,-4.3561,-4.3579,-4.357,-4.3578,-4.358,-4.3582,-4.3584,-4.3524,-4.3582,-4.3582,-4.3582,-4.3581,-4.3581,0,-4.3428,-4.3435,-4.3453,-4.347,-4.3485,-4.3478,-4.3491,-4.3504,-4.3524,-4.3536,-4.3551,-4.3575,-4.3594,-4.36,-4.3618,-4.3631,-4.3628,-4.3636,-4.3634,-4.3636,-4.3591,-4.3584,-4.3638,-4.3638,-4.3638,-4.3638,-4.3638,-4.3638,-4.3457,-4.3484,-4.3486,-4.3518,-4.3525,-4.3547,-4.3556,-4.3567,-4.3576,-4.3603,-4.3619,-4.3623,-4.3633,-4.3652,-4.3669,-4.3671,-4.3677,-4.3687,-4.3687,-4.3645,-4.3639,-4.3633,-4.3626,-4.3689,-4.3689,-4.3729,-4.373,-4.373]},{"header":{"parameterUnit":"m.s-1","parameterCategory":1,"la1":30.2991,"la2":30.254,"lo1":-89.0895,"lo2":-89.0444,"dy":0.0017,"dx":0.0017,"nx":28,"ny":28,"refTime":"2023-04-17T21:00:00:Z","depth":0,"parameterNumber":3,"parameterNumberName":"V-component_of_WINDS"},"data":[0,0,0,0,0,0,0,0,0,0,0,0,0,0,0,0,0,0,0,0,0,0,0,0,0,0,0,0,0,0,0,0,0,0,0,0,0,0,0,0,0,0,0,0,0,0,0,0,0,0,0,0,0,0,0,0,0,0,3.4625,3.4626,0,3.4646,3.4646,3.4647,3.4703,3.4704,3.4705,3.4706,3.4724,3.4723,3.4722,0,0,0,0,0,0,0,0,0,0,0,0,0,3.4632,3.4631,3.4625,3.4626,3.4626,3.4646,3.4646,3.4647,3.4703,3.4704,3.4706,3.4707,3.4724,3.4723,3.4722,0,0,0,0,0,0,0,0,0,0,0,0,0,3.4638,3.4631,3.4625,3.4656,3.4659,3.4646,3.4646,3.4647,3.4702,3.4704,3.4706,3.4708,3.4724,3.4723,3.4722,3.4679,0,0,3.4719,3.4719,0,0,0,0,0,0,0,0,3.4638,3.4638,3.4651,3.4654,3.4657,3.4674,3.4655,3.4658,3.4702,3.4686,3.4706,3.4709,3.4705,3.4706,3.4706,3.468,3.4681,3.4719,3.4718,3.4718,3.4718,0,0,0,0,0,0,0,3.4637,3.4637,3.4633,3.4652,3.4655,3.4668,3.4671,3.4656,3.4685,3.4687,3.4692,3.4693,3.4707,3.4707,3.4707,3.4681,3.4719,3.4718,3.4717,3.4717,3.4624,3.4622,0,0,0,0,0,0,3.4633,3.4637,3.4633,3.4634,3.4652,3.4667,3.467,3.4667,3.4685,3.469,3.4692,3.4696,3.4707,3.4708,3.4707,3.4661,3.4718,3.4717,3.4716,3.4626,3.4624,3.4622,0,0,0,0,0,0,3.4633,3.4632,3.4632,3.4637,3.4638,3.4665,3.466,3.4666,3.4666,3.4689,3.4694,3.4686,3.4709,3.4709,3.4687,3.4662,3.4716,3.4716,3.4628,3.4625,3.4623,3.4565,0,0,0,0,0,0,3.4633,3.4632,3.4616,3.4636,3.4637,3.4611,3.4659,3.4665,3.4664,3.467,3.4685,3.4689,3.471,3.4688,3.4686,3.4661,3.4715,3.463,3.4627,3.4623,3.4569,3.4561,3.4553,0,0,0,0,0,3.4633,3.4597,3.4615,3.4614,3.4618,3.461,3.4611,3.4637,3.4662,3.4646,3.4662,3.4688,3.4665,3.4685,3.4683,3.4658,3.4632,3.4628,3.4624,3.4573,3.4562,3.4553,0,0,0,0,0,0,3.4572,3.46,3.462,3.459,3.4598,3.4619,3.4601,3.4625,3.4624,3.4629,3.4661,3.4664,3.4638,3.4645,3.4668,3.4619,3.4653,3.4648,3.4615,3.4605,3.4597,3.4596,3.4714,0,0,0,0,0,3.4555,3.4547,3.4572,3.4543,3.4546,3.4573,3.457,3.459,3.4598,3.4601,3.4615,3.462,3.4615,3.461,3.4606,3.457,3.4575,3.4552,3.4544,3.4538,3.4533,3.4517,3.4508,3.4608,3.4608,3.4608,0,0,3.452,3.4535,3.4527,3.4532,3.454,3.453,3.4575,3.4562,3.4555,3.4599,3.458,3.459,3.4599,3.457,3.4559,3.4576,3.4507,3.4532,3.4527,3.4526,3.4512,3.4502,3.4494,3.4605,3.4605,3.4606,0,0,3.4452,3.4462,3.4441,3.4448,3.4461,3.4479,3.4474,3.4492,3.4501,3.4483,3.4516,3.4508,3.4497,3.4503,3.4504,3.4441,3.4466,3.4438,3.4396,3.438,3.4372,3.4366,3.4345,3.4337,3.4434,3.4433,3.4433,0,3.4407,3.4395,3.4426,3.4412,3.4414,3.4455,3.4433,3.4439,3.4448,3.4448,3.4468,3.4457,3.4465,3.444,3.4425,3.4424,3.4419,3.4437,3.4371,3.4365,3.4359,3.4339,3.4331,3.443,3.4431,3.4431,3.4431,0,3.434,3.4331,3.4312,3.4323,3.4322,3.4304,3.4332,3.4327,3.4348,3.4364,3.4346,3.4358,3.4358,3.4353,3.4372,3.4331,3.4342,3.4366,3.4401,3.4346,3.4328,3.432,3.4425,3.4427,3.4428,3.4428,0,0,3.4234,3.4264,3.4256,3.4263,3.428,3.4273,3.4258,3.426,3.4256,3.4261,3.4249,3.424,3.4264,3.4265,3.4285,3.4271,3.4222,3.4297,3.4298,3.4284,3.418,3.4163,3.4153,3.4239,3.4237,3.4236,3.418,0,3.4171,3.4148,3.4176,3.4147,3.414,3.4179,3.4166,3.4175,3.419,3.4185,3.4201,3.4195,3.4225,3.4227,3.4215,3.4231,3.4202,3.4235,3.4228,3.4228,3.4226,3.4144,3.4125,3.4071,3.4173,3.4171,3.4171,0,3.4095,3.41,3.407,3.4092,3.409,3.4077,3.4083,3.4078,3.4089,3.4101,3.4104,3.4129,3.4115,3.4149,3.4131,3.4153,3.4152,3.416,3.4158,3.4159,3.4197,3.4144,3.4054,3.4047,3.416,3.416,3.4161,0,3.4023,3.4021,3.4004,3.4008,3.4032,3.4023,3.4032,3.4046,3.4046,3.405,3.405,3.4051,3.4053,3.4053,3.4078,3.41,3.4057,3.4093,3.4067,3.4067,3.4057,3.4058,3.3967,3.4054,3.4054,3.4054,3.4054,0,3.3951,3.3932,3.3973,3.3962,3.3942,3.3974,3.3953,3.3966,3.3978,3.3971,3.4004,3.3996,3.4029,3.4025,3.4044,3.4027,3.4026,3.4036,3.4041,3.4034,3.4033,3.4034,3.4039,3.4052,3.4053,3.4053,3.4053,0,3.3867,3.3894,3.3878,3.3903,3.3909,3.3893,3.3914,3.3905,3.3923,3.3913,3.3913,3.394,3.3937,3.3962,3.3962,3.3976,3.395,3.3961,3.3947,3.3951,3.3925,3.3928,3.3834,3.3824,3.3915,3.3914,3.3913,0,3.3821,3.3807,3.3832,3.383,3.3838,3.3835,3.3836,3.3867,3.3867,3.388,3.387,3.387,3.3871,3.3864,3.3884,3.3885,3.3898,3.3864,3.3898,3.3891,3.3899,3.39,3.39,3.3858,3.3856,3.3856,3.3855,0,3.3735,3.375,3.3751,3.3756,3.3757,3.3763,3.377,3.3767,3.3801,3.3799,3.3797,3.3799,3.3801,3.3801,3.3806,3.3816,3.3841,3.3844,3.3839,3.3831,3.3824,3.383,3.393,3.3846,3.3847,3.3848,3.3848,3.3849,3.367,3.3661,3.3677,3.3678,3.3687,3.3694,3.3688,3.3706,3.3706,3.3711,3.3729,3.3725,3.3738,3.3748,3.3755,3.3752,3.3768,3.3759,3.3757,3.3755,3.3752,3.3824,3.3753,3.3753,3.3753,3.3753,3.3754,0,3.3588,3.3601,3.3601,3.3612,3.3613,3.3638,3.3648,3.3647,3.3643,3.3654,3.3656,3.3655,3.3655,3.3675,3.3678,3.3672,3.3684,3.3672,3.3673,3.3675,3.3736,3.3741,3.3662,3.3662,3.3662,3.3662,3.3662,3.3662,3.3546,3.3533,3.3549,3.3541,3.3554,3.3551,3.3555,3.3562,3.3571,3.3569,3.357,3.3584,3.3599,3.3603,3.3605,3.3611,3.3611,3.3595,3.3605,3.3662,3.3671,3.3679,3.3685,3.3595,3.3595,3.3545,3.3545,3.3544]}]]